Wind_Speed
12 12 12 13 14 15 15 16 16 16 18 18 18 19 20 21 21 22 22 22 23 24 24 25 25 25 26 26 26 26 25 25 24 24 24 24 23 23 22 23 23 23 23 23 23 22 21 21 20
9 10 11 11 12 13 14 15 15 16 16 16 17 19 21 22 23 23 24 23 23 24 25 26 26 27 27 28 28 28 28 28 27 27 26 26 26 25 25 25 25 26 26 25 25 25 24 24 24
8 8 8 8 9 10 11 11 12 14 15 16 16 18 20 21 23 23 23 23 23 23 24 25 26 27 28 29 29 29 29 29 29 28 28 28 27 27 27 27 27 28 28 27 27 27 27 27 27
7 7 6 6 6 5 6 8 11 13 14 14 14 15 15 16 18 20 21 21 22 23 24 25 26 28 29 29 30 30 30 30 30 29 29 29 29 29 29 29 29 29 29 29 29 29 29 29 29
8 7 5 4 4 4 6 8 10 12 12 12 12 13 13 14 15 17 19 21 22 23 23 24 26 28 29 30 30 31 31 31 31 32 32 32 31 31 31 31 31 31 31 31 30 30 30 31 31
7 7 6 5 6 7 8 10 11 11 11 12 13 14 15 16 16 17 18 20 22 24 25 26 27 29 30 31 32 32 33 34 34 35 35 35 34 34 34 34 33 33 33 33 33 32 32 32 32
6 6 6 6 6 8 10 12 13 15 15 15 16 18 19 20 21 21 22 24 26 28 29 30 31 32 33 34 35 36 36 36 37 38 38 38 38 38 38 37 36 36 36 36 36 35 34 34 34
6 6 6 7 8 9 11 12 14 15 17 18 19 21 22 23 24 25 27 28 29 30 32 33 34 35 36 37 37 38 38 37 37 38 39 39 40 40 41 41 40 39 39 39 38 38 37 36 36
8 8 8 9 10 11 12 12 13 14 15 17 19 21 22 24 26 27 29 30 31 32 33 34 34 35 36 37 38 39 38 38 37 37 38 39 40 41 42 42 42 41 41 41 41 41 40 39 38
8 9 9 10 11 11 12 13 13 14 15 16 18 21 23 25 27 29 30 31 32 33 33 33 34 34 35 37 38 39 39 39 39 39 39 39 39 40 41 42 42 42 41 42 42 43 42 41 40
8 9 10 11 12 12 13 15 16 17 18 19 21 23 25 26 28 30 31 32 33 34 34 35 36 36 37 38 40 41 41 42 42 43 43 43 43 42 42 42 42 42 42 42 42 42 42 42 41
9 10 11 12 13 13 14 14 15 16 18 19 21 22 24 26 28 30 31 32 33 34 35 36 37 38 39 40 41 42 44 44 45 46 46 47 46 46 45 44 43 43 43 43 43 43 43 43 42
10 11 12 12 12 12 12 12 13 14 15 17 19 22 24 26 29 31 33 35 36 37 39 39 40 41 42 43 43 44 45 46 47 48 49 49 49 49 49 48 47 46 46 45 45 45 45 45 44
10 10 11 11 12 12 12 13 14 15 17 20 22 25 27 30 33 35 38 40 41 43 44 45 47 48 48 49 50 50 50 50 50 50 51 51 51 51 51 51 51 50 50 48 48 47 48 48 47
12 12 12 13 13 14 14 14 17 19 22 25 27 30 33 35 38 40 42 44 46 47 49 50 52 53 53 54 55 56 56 56 56 56 56 55 55 54 54 53 53 53 52 52 51 50 50 50 50
13 13 13 14 15 16 17 17 20 23 26 29 31 34 36 39 41 43 46 48 49 51 53 54 55 56 57 58 59 60 61 61 61 61 60 60 60 59 59 58 57 56 55 55 54 53 53 52 52
13 14 15 16 17 19 20 22 24 27 30 32 34 37 40 43 46 49 51 53 54 56 57 59 60 61 62 62 63 63 64 64 64 63 63 63 63 63 63 63 63 61 60 59 58 57 57 56 56
13 14 16 17 19 22 24 26 29 32 34 37 40 43 46 50 52 55 57 59 61 63 64 65 65 65 66 66 66 67 67 66 66 65 65 65 65 65 66 66 67 67 66 65 63 62 61 60 59
14 16 18 20 22 25 29 32 36 38 41 44 47 50 54 58 60 63 65 68 70 71 72 72 72 71 71 70 71 71 71 71 71 70 70 70 70 70 70 70 70 71 71 70 69 68 67 66 65
16 19 21 23 26 29 33 38 41 44 47 50 53 56 60 64 67 70 74 76 78 79 79 78 77 77 77 77 76 76 76 77 77 76 75 76 76 76 76 77 77 76 76 75 74 73 72 71 70
19 22 25 27 30 33 38 43 45 48 51 55 58 62 66 70 74 78 81 83 83 83 83 84 83 82 81 81 80 80 79 80 81 81 81 82 82 82 83 84 84 84 83 81 80 79 77 76 74
22 25 28 31 35 39 42 47 49 52 55 59 63 67 72 76 80 82 83 84 84 83 83 83 82 82 81 79 78 78 78 77 78 80 82 83 84 86 87 88 88 88 87 86 85 84 83 82 80
26 28 31 35 38 42 45 50 54 56 59 63 68 73 76 79 81 82 81 81 80 79 78 76 74 71 69 67 66 65 64 64 64 66 68 71 75 78 81 84 87 88 89 89 89 88 87 86 85
29 32 35 38 41 45 48 53 57 59 64 69 73 76 78 79 78 77 76 75 73 70 66 62 59 56 54 53 52 50 47 44 44 44 46 50 54 58 62 67 72 76 80 83 85 87 88 88 88
31 34 37 41 45 48 52 55 59 64 69 72 75 77 77 75 73 71 68 64 60 56 53 51 49 47 46 44 42 39 35 32 30 30 31 33 36 39 43 47 51 56 61 66 71 76 81 84 86
33 37 40 44 48 51 54 58 63 68 71 74 76 75 73 69 66 62 58 54 52 50 48 47 45 43 41 39 37 34 31 29 27 27 26 27 28 30 32 36 39 42 46 51 56 63 70 76 80
36 40 43 47 51 54 58 61 66 69 72 74 73 71 67 62 58 54 51 49 48 46 46 44 43 41 39 37 35 33 31 29 28 28 28 27 28 29 31 33 35 37 40 42 46 50 57 64 70
38 43 47 51 55 58 61 65 68 71 73 73 70 66 61 55 51 48 46 46 46 46 45 44 43 42 40 38 37 35 33 32 31 30 30 30 31 32 33 35 36 37 38 39 41 43 46 51 57
41 45 49 53 56 61 66 67 69 72 73 71 67 61 55 50 47 45 45 46 46 46 46 45 44 43 42 41 39 38 37 36 35 35 34 34 35 35 36 37 38 38 38 38 38 38 39 41 44
42 47 51 54 59 62 66 68 72 73 72 69 63 56 51 48 47 47 47 47 47 47 47 47 46 46 45 44 43 42 41 40 40 39 39 38 38 38 38 38 38 38 37 36 33 32 33 34 37
Wind_Direction
282 278 274 268 262 257 251 245 241 242 244 247 251 256 259 261 264 267 262 257 253 251 250 252 256 259 261 264 267 271 273 275 276 277 278 278 277 275 272 268 262 257 254 253 253 254 255 258 261
297 290 280 272 267 267 258 252 247 251 254 257 259 261 262 264 265 267 267 264 260 257 256 258 261 263 264 266 268 270 272 274 274 274 274 274 274 272 269 265 260 256 254 253 253 254 255 257 259
315 303 296 290 287 283 278 273 274 273 269 267 266 267 268 268 269 269 270 269 267 265 264 264 265 266 266 267 268 269 270 271 271 270 271 271 271 269 267 264 259 255 252 251 252 253 255 256 257
326 324 317 310 319 321 306 301 297 287 280 279 277 275 275 275 274 276 277 277 277 275 273 272 271 270 269 268 268 268 269 269 269 268 268 268 268 266 264 262 259 256 254 252 251 252 253 254 255
330 334 339 344 357 344 332 312 300 293 288 285 284 285 288 286 285 282 280 279 280 279 277 276 275 274 272 271 271 271 271 270 269 268 267 266 265 263 262 261 259 257 256 254 252 251 252 253 253
337 339 337 343 347 334 322 311 304 300 297 295 294 294 294 291 287 281 277 276 276 277 276 275 275 275 274 274 274 273 272 271 270 269 267 265 264 262 261 259 258 257 256 255 254 252 251 251 251
349 345 339 334 325 313 309 308 308 309 307 305 302 299 297 295 291 286 281 278 276 276 276 275 275 274 273 272 272 272 271 271 270 269 268 266 264 263 261 260 258 256 255 254 253 252 251 250 250
349 344 337 324 314 309 309 308 308 307 307 306 304 301 298 296 293 291 289 286 284 282 281 281 280 279 278 276 274 272 271 270 270 268 267 266 264 262 261 260 259 256 254 252 251 251 250 249 249
2 355 347 339 333 330 326 320 314 310 305 303 302 300 298 297 296 295 293 292 290 288 287 285 283 282 280 278 276 275 273 271 269 267 266 265 264 262 261 260 259 257 254 251 250 249 249 249 248
12 6 357 353 348 341 334 327 321 314 308 303 301 300 299 298 298 297 297 296 295 293 291 289 286 284 282 280 278 276 274 273 272 270 268 266 265 264 263 261 260 258 255 252 250 248 248 247 247
6 358 352 346 339 332 327 322 318 315 312 309 306 304 303 302 302 302 301 300 298 297 294 292 289 286 283 281 279 277 276 274 273 272 271 269 267 266 264 263 262 260 256 253 250 249 247 246 245
346 342 337 332 329 327 326 324 322 321 318 316 313 310 308 306 305 304 302 300 298 296 294 292 289 286 283 280 278 276 274 273 271 271 270 268 267 266 265 264 262 260 257 254 251 249 248 246 244
345 342 339 338 341 345 346 345 339 333 328 322 317 314 311 308 305 303 301 300 298 296 294 292 289 286 284 281 279 276 275 273 270 269 267 266 265 264 264 263 262 260 258 256 253 251 249 247 245
7 5 4 7 11 12 6 356 345 335 327 322 317 313 310 307 305 303 301 300 298 295 293 290 287 285 283 281 279 276 274 272 270 268 266 264 263 262 261 261 260 259 258 256 254 253 251 249 247
34 31 26 22 17 8 358 344 333 327 323 320 318 315 312 309 307 304 302 300 297 295 292 290 288 286 283 281 279 277 275 273 271 269 267 265 262 260 258 258 257 256 256 255 254 252 251 249 248
35 29 20 11 3 355 346 337 331 329 325 323 320 317 313 310 306 303 301 298 296 293 291 289 287 285 283 281 279 277 275 273 272 270 268 266 263 261 258 257 255 254 253 253 253 252 250 249 248
26 18 11 5 358 352 346 341 336 331 327 322 318 315 312 308 305 302 300 297 295 292 290 287 285 283 281 279 277 275 273 271 270 268 267 265 264 262 260 258 256 254 252 251 251 251 250 249 248
17 10 4 359 353 347 341 335 331 327 323 320 316 313 310 307 305 302 300 297 295 292 290 287 285 283 280 278 276 274 272 270 267 265 264 263 262 262 261 259 258 256 254 252 251 250 249 249 248
6 0 355 350 345 338 333 328 326 324 321 318 315 312 309 307 306 304 301 299 296 294 292 290 287 284 281 277 274 272 270 268 266 265 264 262 261 260 259 259 258 258 257 256 254 252 250 249 248
355 349 344 340 335 331 327 324 324 322 320 317 314 311 309 307 306 304 302 300 298 296 294 291 288 285 282 279 275 271 267 265 263 262 262 261 260 260 259 259 258 258 257 257 256 255 253 250 249
345 340 335 330 328 326 324 323 323 322 320 317 314 312 310 308 307 306 304 302 300 298 296 294 292 290 287 284 280 276 272 268 265 262 261 260 259 259 259 259 259 258 258 257 256 256 255 253 251
336 333 329 326 326 326 324 321 323 323 320 317 315 314 312 311 310 308 306 304 302 300 299 298 298 298 296 294 291 286 281 276 271 267 264 262 261 261 260 260 260 260 259 258 257 256 256 254 253
332 329 328 327 326 325 324 323 324 323 320 318 317 316 315 314 312 310 309 307 305 305 304 304 304 304 302 301 299 296 291 286 280 275 270 267 266 264 263 262 261 261 261 260 259 257 256 254 253
330 329 328 327 326 327 326 323 323 322 322 321 320 319 318 316 314 313 311 311 310 310 311 311 310 310 309 308 306 304 299 293 286 281 275 271 269 268 267 265 264 262 261 261 260 258 256 254 253
330 330 329 328 329 328 325 323 324 324 323 322 322 321 320 318 317 316 316 316 318 319 320 319 319 318 317 316 314 312 308 302 295 286 280 274 270 268 267 266 265 264 263 260 258 256 254 252 251
331 330 331 329 328 327 326 326 325 324 324 324 324 323 322 321 320 321 323 325 326 326 326 326 325 324 324 323 322 320 315 310 304 297 290 284 277 272 270 271 270 269 267 263 260 256 252 250 248
332 331 330 329 328 328 327 327 326 326 327 327 326 325 324 324 326 328 329 330 330 330 330 330 330 329 328 327 325 323 319 315 309 304 299 294 288 283 280 279 278 277 274 271 267 263 256 250 247
333 332 331 329 327 326 326 327 328 328 329 328 327 327 327 328 330 330 331 332 332 332 332 332 331 330 328 326 324 322 318 314 310 305 301 296 292 289 286 284 283 282 280 278 275 269 260 253 247
333 332 330 329 327 326 325 329 329 330 331 330 329 329 330 331 331 331 331 332 332 332 330 329 328 327 325 323 320 317 314 310 307 304 300 297 294 292 289 287 286 284 283 282 279 272 263 255 245
334 332 331 329 328 327 327 329 331 332 332 331 330 330 331 331 332 332 331 331 330 328 327 325 324 322 321 319 317 314 311 307 304 302 299 297 295 293 291 289 287 285 284 282 279 272 262 250 238
Height
5841 5840 5841 5843 5844 5843 5843 5843 5843 5844 5844 5845 5845 5845 5845 5846 5847 5850 5848 5848 5848 5848 5848 5849 5849 5849 5848 5848 5848 5847 5847 5846 5846 5845 5845 5845 5845 5845 5845 5845 5846 5846 5847 5848 5848 5849 5850 5850 5851
5839 5840 5842 5842 5842 5842 5842 5842 5842 5842 5843 5844 5844 5843 5843 5843 5843 5843 5843 5843 5844 5844 5845 5845 5845 5845 5844 5844 5843 5843 5842 5842 5841 5840 5840 5840 5840 5839 5840 5840 5840 5841 5842 5842 5843 5844 5845 5846 5847
5839 5840 5842 5841 5840 5841 5842 5842 5842 5842 5842 5842 5842 5842 5842 5841 5841 5840 5840 5840 5840 5840 5840 5841 5840 5840 5839 5839 5838 5838 5837 5836 5836 5835 5835 5834 5834 5834 5834 5834 5835 5835 5836 5837 5837 5839 5840 5841 5842
5840 5841 5842 5841 5840 5841 5841 5841 5841 5841 5840 5840 5840 5840 5839 5839 5839 5839 5838 5838 5838 5837 5837 5837 5836 5835 5835 5834 5833 5832 5831 5831 5830 5829 5829 5829 5828 5828 5828 5828 5829 5829 5830 5830 5831 5832 5833 5834 5836
5840 5841 5841 5840 5840 5841 5840 5840 5840 5840 5839 5839 5839 5838 5838 5838 5838 5838 5837 5836 5835 5834 5833 5832 5831 5830 5829 5828 5827 5826 5825 5825 5824 5823 5822 5822 5822 5822 5822 5822 5822 5823 5823 5824 5824 5826 5827 5828 5829
5841 5841 5841 5840 5840 5840 5840 5839 5839 5839 5839 5838 5837 5837 5836 5835 5835 5835 5833 5832 5830 5829 5828 5827 5825 5824 5823 5822 5820 5819 5818 5817 5817 5816 5815 5815 5815 5814 5814 5815 5815 5816 5816 5817 5817 5818 5820 5821 5822
5841 5840 5839 5839 5839 5839 5839 5839 5838 5838 5837 5836 5836 5835 5833 5832 5831 5830 5829 5827 5825 5824 5822 5820 5818 5817 5815 5813 5812 5811 5810 5809 5808 5808 5807 5807 5807 5807 5806 5807 5807 5808 5808 5809 5810 5811 5812 5813 5815
5839 5840 5839 5839 5839 5839 5839 5838 5837 5836 5835 5834 5832 5830 5829 5827 5825 5824 5822 5821 5819 5817 5815 5814 5812 5809 5807 5805 5803 5802 5800 5800 5799 5798 5798 5798 5798 5798 5798 5798 5798 5799 5800 5801 5802 5803 5804 5806 5807
5840 5840 5839 5839 5839 5838 5837 5837 5836 5834 5832 5831 5828 5826 5825 5823 5821 5819 5817 5815 5813 5811 5809 5807 5805 5802 5800 5798 5796 5794 5792 5790 5789 5789 5788 5788 5788 5788 5788 5788 5789 5790 5791 5792 5793 5794 5796 5797 5799
5840 5839 5839 5839 5838 5837 5836 5835 5834 5832 5831 5829 5827 5824 5822 5820 5818 5815 5812 5810 5807 5805 5802 5800 5797 5795 5792 5790 5787 5785 5784 5782 5780 5779 5779 5778 5778 5778 5779 5779 5780 5780 5781 5782 5783 5785 5786 5788 5790
5839 5839 5838 5838 5837 5836 5835 5833 5831 5830 5828 5826 5824 5821 5819 5816 5813 5810 5807 5804 5801 5798 5795 5792 5789 5787 5784 5781 5779 5777 5775 5773 5771 5770 5769 5769 5769 5768 5769 5769 5770 5771 5772 5773 5774 5775 5777 5779 5781
5839 5838 5838 5837 5836 5835 5833 5831 5829 5827 5825 5823 5820 5817 5814 5811 5808 5805 5801 5798 5794 5791 5787 5784 5781 5777 5775 5772 5769 5767 5765 5763 5761 5760 5759 5758 5758 5758 5758 5759 5759 5761 5762 5763 5764 5765 5767 5769 5771
5839 5838 5837 5836 5835 5833 5832 5830 5828 5825 5823 5821 5818 5814 5811 5808 5804 5800 5796 5792 5788 5784 5780 5776 5772 5768 5765 5762 5759 5756 5753 5751 5750 5748 5747 5747 5746 5747 5747 5747 5748 5749 5750 5752 5754 5755 5757 5759 5761
5839 5838 5837 5836 5835 5834 5832 5831 5828 5825 5822 5820 5816 5813 5809 5805 5801 5796 5791 5786 5781 5776 5771 5767 5762 5758 5754 5751 5747 5744 5741 5739 5737 5735 5734 5734 5733 5734 5734 5735 5736 5737 5738 5740 5742 5744 5746 5748 5751
5840 5840 5839 5837 5836 5834 5833 5831 5827 5824 5821 5818 5814 5810 5806 5801 5795 5790 5784 5778 5772 5766 5761 5755 5751 5746 5742 5738 5734 5730 5727 5724 5722 5721 5720 5719 5719 5719 5720 5721 5721 5723 5725 5727 5729 5731 5733 5736 5739
5842 5841 5839 5838 5836 5834 5833 5830 5826 5822 5819 5814 5810 5805 5799 5794 5787 5781 5775 5768 5762 5755 5749 5743 5737 5732 5727 5723 5719 5715 5712 5709 5706 5704 5703 5702 5703 5703 5704 5705 5706 5708 5710 5713 5715 5718 5720 5723 5726
5842 5841 5839 5837 5835 5833 5830 5827 5823 5819 5814 5809 5804 5798 5792 5785 5778 5771 5764 5757 5750 5743 5736 5729 5723 5717 5712 5707 5702 5698 5695 5692 5689 5686 5685 5684 5684 5685 5686 5688 5689 5691 5694 5697 5700 5703 5706 5709 5712
5843 5841 5839 5836 5834 5830 5827 5822 5818 5814 5809 5803 5797 5790 5783 5776 5768 5760 5752 5743 5735 5727 5720 5713 5706 5699 5694 5689 5684 5680 5676 5673 5670 5668 5666 5665 5665 5665 5666 5669 5671 5673 5676 5680 5682 5686 5689 5693 5697
5842 5840 5838 5835 5832 5828 5823 5818 5814 5809 5803 5797 5790 5782 5774 5765 5756 5747 5737 5728 5719 5710 5701 5692 5685 5678 5672 5666 5662 5658 5655 5652 5650 5647 5646 5645 5645 5645 5646 5648 5651 5653 5657 5660 5664 5667 5671 5676 5679
5842 5839 5836 5833 5829 5825 5819 5814 5809 5803 5796 5789 5780 5771 5762 5752 5742 5731 5720 5709 5698 5688 5678 5669 5660 5652 5645 5639 5635 5631 5629 5627 5626 5625 5623 5622 5622 5622 5624 5626 5629 5632 5636 5640 5643 5646 5651 5657 5661
5840 5837 5833 5829 5825 5820 5815 5808 5802 5795 5787 5778 5768 5758 5747 5736 5725 5713 5700 5687 5674 5663 5652 5641 5631 5623 5616 5610 5606 5603 5601 5599 5598 5598 5598 5597 5597 5598 5600 5603 5606 5609 5613 5618 5621 5625 5629 5635 5640
5839 5835 5830 5825 5820 5815 5809 5800 5794 5786 5777 5766 5756 5744 5732 5719 5706 5692 5678 5664 5651 5638 5626 5616 5606 5596 5588 5581 5576 5572 5571 5571 5570 5570 5571 5572 5572 5573 5575 5578 5581 5585 5589 5593 5598 5602 5606 5612 5618
5836 5832 5827 5821 5815 5809 5801 5792 5785 5776 5766 5755 5743 5730 5716 5702 5687 5672 5657 5643 5629 5617 5606 5596 5587 5577 5569 5561 5553 5548 5545 5544 5544 5544 5546 5548 5549 5550 5551 5554 5557 5561 5564 5568 5572 5577 5582 5588 5595
5833 5828 5823 5817 5810 5802 5793 5783 5774 5764 5753 5741 5727 5714 5699 5685 5670 5654 5640 5626 5613 5602 5591 5581 5572 5563 5555 5547 5539 5532 5528 5525 5524 5524 5526 5527 5529 5530 5530 5532 5534 5537 5540 5543 5546 5551 5556 5562 5569
5829 5824 5818 5810 5802 5794 5785 5774 5765 5752 5740 5727 5713 5699 5683 5668 5653 5639 5626 5613 5601 5590 5580 5571 5562 5553 5545 5537 5529 5522 5518 5515 5513 5512 5512 5513 5514 5514 5514 5514 5515 5516 5517 5519 5521 5525 5530 5535 5542
5824 5818 5812 5804 5795 5786 5776 5765 5755 5742 5728 5714 5699 5683 5667 5653 5639 5626 5613 5602 5591 5581 5572 5563 5554 5546 5538 5530 5523 5517 5512 5508 5505 5504 5502 5502 5501 5502 5502 5501 5501 5500 5499 5499 5499 5501 5505 5509 5515
5818 5812 5805 5797 5787 5777 5767 5757 5745 5731 5717 5702 5686 5670 5655 5641 5628 5616 5605 5594 5584 5575 5566 5556 5548 5540 5532 5525 5518 5512 5507 5503 5499 5496 5494 5493 5491 5491 5490 5489 5488 5486 5484 5483 5482 5482 5483 5486 5491
5814 5806 5798 5788 5777 5767 5757 5746 5734 5718 5705 5690 5674 5660 5646 5632 5620 5609 5598 5588 5579 5569 5560 5551 5542 5534 5527 5520 5513 5507 5502 5497 5493 5490 5487 5484 5482 5480 5478 5476 5474 5472 5470 5468 5466 5465 5464 5467 5471
5809 5801 5791 5780 5769 5756 5744 5738 5722 5707 5692 5677 5662 5648 5635 5624 5613 5602 5592 5582 5573 5563 5554 5546 5538 5530 5522 5515 5508 5502 5496 5491 5486 5482 5478 5475 5471 5469 5466 5463 5461 5459 5456 5454 5451 5449 5449 5451 5455
5803 5795 5785 5775 5762 5749 5736 5727 5708 5694 5678 5664 5650 5638 5626 5616 5605 5595 5585 5576 5567 5558 5549 5540 5532 5523 5515 5508 5500 5494 5488 5482 5477 5472 5467 5463 5460 5456 5453 5450 5448 5445 5443 5441 5439 5437 5437 5438 5443